CAPE
0 0 0 0 0 0 0 0 1556 1913 1795 1693 1475 1137 905 727 748 706 524 460 397 224 42 7 0 14 22 0 0 0 0 1 0 0 1 0 0 1 1 1 3 0 0
0 0 0 0 0 0 0 0 906 1911 2035 2022 1797 1603 1351 1072 972 863 698 526 530 260 213 56 2 23 32 1 0 0 0 0 0 0 0 1 1 1 1 1 1 0 0
0 0 0 0 0 0 0 0 0 1509 2111 2150 1986 1573 1647 1281 1055 956 906 682 560 363 371 115 26 56 58 19 0 0 0 0 1 0 0 2 5 0 1 1 1 0 0
0 0 0 0 0 0 0 0 0 111 1785 2113 2081 1819 1733 1576 1390 1240 1130 956 691 508 474 156 59 125 77 39 2 0 0 0 0 0 0 0 0 0 1 2 1 1 0
0 0 0 0 0 0 0 0 0 0 725 2035 2084 1845 1730 1626 1508 1412 1291 1056 916 737 528 230 222 254 154 55 2 0 0 0 0 3 3 0 0 0 0 2 4 1 1
0 0 0 0 0 0 0 0 0 0 604 1897 2084 1915 1781 1606 1343 1462 1323 985 882 902 725 566 371 277 222 136 15 0 0 0 0 0 4 5 0 0 0 0 0 0 1
211 45 58 0 0 0 0 0 0 1 784 1796 2148 1965 1804 1562 1425 1496 1314 1006 1072 1133 938 630 385 287 223 167 49 13 0 0 0 0 0 0 0 0 0 0 0 0 0
286 256 132 101 99 187 351 424 639 785 1196 2012 2212 2010 1795 1500 1432 1381 1388 1150 1076 1132 941 608 427 334 278 199 73 28 6 0 0 0 0 0 0 1 0 0 0 0 0
84 13 9 5 2 8 167 901 1173 1438 2169 2279 2061 1792 1408 1294 1214 1115 918 1048 877 779 636 509 370 226 191 184 102 74 13 0 0 1 1 3 8 6 3 0 0 0 0
9 6 11 9 5 2 3 0 11 142 327 859 1363 1255 1217 878 741 655 579 636 656 408 378 388 295 162 105 103 75 75 24 13 2 2 2 12 6 4 5 0 0 0 0
14 6 4 16 11 2 1 1 1 1 3 27 251 420 335 207 145 194 163 213 185 132 144 182 125 52 25 18 16 15 11 18 13 8 15 5 13 2 5 0 0 0 0
7 9 8 25 19 5 6 3 2 1 1 2 2 1 10 138 150 66 34 26 40 28 27 10 4 0 0 0 0 0 0 10 16 17 11 24 11 4 7 2 0 0 0
7 10 5 10 9 2 2 2 1 2 3 2 3 4 1 0 4 53 66 63 50 28 2 0 0 0 0 0 0 0 0 11 15 6 6 6 5 4 5 7 2 0 0
4 5 3 3 5 6 2 2 1 1 1 0 1 4 4 5 4 2 20 47 26 4 0 0 0 0 0 0 0 0 0 0 1 1 2 8 7 21 9 3 4 1 0
10 4 3 2 1 2 2 2 1 2 1 1 0 1 0 0 0 0 1 0 0 1 0 0 0 0 0 0 0 0 0 0 0 0 0 0 0 0 0 0 2 5 6
9 6 11 7 3 2 2 2 2 1 1 1 1 1 0 0 1 1 0 1 1 0 0 0 0 0 0 0 0 0 0 0 0 0 0 0 0 0 2 1 1 0 8
5 9 10 8 7 3 2 1 1 1 1 0 0 1 0 1 1 2 0 2 2 1 1 0 0 0 0 1 2 1 0 0 0 0 0 0 0 1 1 0 1 1 1
0 1 4 2 2 2 2 0 0 0 1 1 1 0 1 0 0 0 1 1 2 1 2 1 0 0 0 0 2 2 0 0 0 1 0 0 0 0 1 0 0 0 0
0 1 1 1 1 2 3 0 0 1 1 2 2 1 1 1 1 1 1 2 2 2 2 2 0 1 0 0 1 1 1 1 1 1 0 0 1 0 0 0 0 0 0
1 0 1 0 0 1 2 1 1 2 2 2 3 2 2 2 2 1 1 1 2 1 1 0 1 1 0 0 0 0 1 1 1 0 0 0 0 0 0 0 0 0 0
1 0 0 1 2 2 3 2 1 2 3 1 1 2 1 2 2 1 0 1 1 0 0 0 0 0 0 0 0 1 1 0 1 0 0 0 0 0 0 0 0 0 0
0 0 0 0 0 2 4 3 3 1 1 0 0 1 1 2 2 1 0 0 1 0 0 0 0 0 0 1 2 0 1 0 0 0 0 0 1 0 0 0 0 0 0
0 0 0 0 0 1 4 4 4 1 0 0 0 0 1 1 1 1 1 1 0 0 0 0 0 0 0 0 1 1 0 0 0 0 1 3 4 2 0 1 0 0 0
0 0 0 0 0 1 4 4 2 2 0 0 1 0 1 1 1 0 1 1 1 1 1 1 0 0 0 0 0 0 0 0 0 0 0 0 0 0 0 0 0 0 0
0 0 0 0 0 0 3 4 1 1 1 0 1 1 1 1 0 3 4 2 1 1 0 0 0 0 1 3 1 0 0 0 0 0 0 0 0 0 0 0 0 0 0
0 0 0 0 0 0 0 0 0 0 1 1 1 1 1 0 0 0 0 3 3 7 7 6 0 1 5 5 6 4 3 1 0 0 0 0 0 0 0 0 0 0 0
CIN
-0 -0 -0 -0 -0 -0 -0 -0 -262 -253 -232 -243 -239 -259 -302 -353 -352 -358 -348 -337 -332 -354 -424 -315 -0 -289 -316 -0 -0 -0 -0 -0 -0 -0 -0 -0 -0 -0 -0 -0 -55 -0 -0
-0 -0 -0 -0 -0 -0 -0 -0 -273 -220 -214 -178 -264 -240 -283 -293 -313 -303 -314 -318 -310 -354 -336 -397 -51 -361 -369 -0 -0 -0 -0 -0 -0 -0 -0 -0 -0 -0 -0 -0 -0 -0 -0
-0 -0 -0 -0 -0 -0 -0 -0 -0 -215 -206 -188 -172 -229 -172 -179 -215 -246 -283 -343 -327 -339 -299 -366 -383 -334 -342 -349 -0 -0 -0 -0 -0 -0 -58 -5 -2 -0 -0 -0 -0 -0 -0
-0 -0 -0 -0 -0 -0 -0 -0 -0 -201 -231 -158 -144 -175 -211 -194 -252 -320 -316 -292 -313 -321 -283 -338 -351 -298 -309 -350 -158 -0 -0 -0 -0 -0 -0 -0 -0 -0 -0 -0 -0 -0 -0
-0 -0 -0 -0 -0 -0 -0 -0 -0 -0 -259 -151 -162 -173 -189 -241 -297 -250 -244 -258 -276 -280 -269 -322 -284 -253 -267 -310 -156 -0 -0 -0 -0 -80 -90 -0 -0 -0 -0 -0 -0 -0 -0
-0 -0 -0 -0 -0 -0 -0 -0 -0 -0 -278 -148 -151 -147 -165 -241 -259 -219 -208 -262 -284 -259 -233 -240 -247 -243 -233 -255 -350 -16 -0 -0 -0 -0 -70 -82 -12 -0 -0 -0 -0 -0 -0
-163 -143 -150 -0 -0 -0 -0 -0 -0 -104 -298 -166 -95 -124 -154 -211 -284 -248 -247 -261 -241 -205 -218 -222 -222 -228 -228 -239 -279 -304 -0 -0 -0 -0 -0 -0 -0 -0 -0 -0 -0 -0 -0
-0 -40 -114 -192 -407 -390 -368 -420 -379 -368 -233 -100 -38 -74 -87 -190 -211 -219 -210 -225 -242 -221 -195 -194 -185 -193 -205 -210 -251 -256 -218 -0 -0 -4 -0 -0 -0 -10 -12 -0 -0 -0 -0
-27 -0 -0 -0 -0 -229 -456 -237 -213 -209 -81 -42 -26 -71 -194 -200 -176 -186 -218 -189 -233 -226 -232 -176 -179 -213 -199 -198 -211 -206 -230 -0 -0 -43 -39 -37 -84 -94 -92 -8 -0 -0 -0
-0 -0 -0 -0 -0 -0 -0 -0 -325 -353 -302 -171 -80 -104 -118 -147 -154 -162 -200 -210 -225 -277 -238 -181 -159 -186 -193 -200 -189 -173 -193 -190 -52 -35 -41 -56 -60 -65 -58 -0 -0 -0 -0
-0 -0 -0 -0 -0 -0 -0 -0 -0 -0 -0 -244 -182 -152 -185 -199 -178 -182 -202 -236 -315 -327 -271 -194 -171 -194 -203 -207 -191 -199 -208 -158 -144 -36 -40 -41 -53 -32 -23 -14 -0 -0 -0
-0 -0 -0 -0 -0 -0 -0 -0 -0 -0 -0 -0 -0 -0 -248 -237 -174 -140 -220 -257 -311 -327 -293 -243 -124 -6 -0 -0 -0 -0 -0 -158 -153 -31 -28 -169 -38 -28 -15 -1 -0 -0 -0
-0 -0 -0 -0 -0 -0 -0 -0 -0 -0 -0 -0 -0 -0 -0 -0 -135 -163 -173 -210 -262 -268 -196 -0 -0 -0 -0 -0 -0 -0 -0 -47 -33 -24 -21 -11 -7 -0 -2 -3 -12 -0 -0
-0 -0 -0 -0 -0 -0 -0 -0 -0 -0 -0 -0 -0 -0 -0 -0 -0 -0 -228 -253 -251 -245 -0 -0 -0 -0 -0 -0 -0 -0 -0 -13 -25 -17 -14 -26 -12 -2 -7 -25 -1 -4 -0
-0 -0 -0 -0 -0 -0 -0 -0 -0 -0 -0 -0 -0 -0 -0 -0 -0 -0 -0 -15 -0 -0 -0 -0 -0 -0 -0 -0 -0 -0 -0 -0 -0 -0 -0 -0 -0 -0 -0 -0 -5 -5 -16
-0 -0 -0 -0 -0 -0 -0 -0 -0 -0 -0 -0 -0 -0 -0 -0 -0 -0 -0 -0 -0 -0 -0 -0 -0 -0 -0 -0 -0 -0 -0 -0 -0 -0 -0 -0 -0 -0 -0 -0 -0 -0 -2
-0 -0 -0 -0 -0 -0 -0 -0 -0 -0 -0 -0 -0 -0 -0 -0 -0 -0 -0 -0 -0 -0 -0 -0 -0 -0 -0 -0 -0 -0 -0 -0 -0 -0 -0 -0 -0 -0 -0 -0 -0 -0 -0
-0 -0 -0 -0 -0 -0 -0 -0 -0 -0 -0 -0 -0 -0 -0 -0 -0 -0 -0 -0 -0 -0 -0 -0 -0 -0 -0 -0 -0 -0 -0 -0 -0 -0 -0 -0 -0 -0 -0 -0 -0 -0 -0
-0 -0 -0 -0 -0 -0 -0 -0 -0 -0 -0 -0 -0 -0 -0 -0 -0 -0 -0 -0 -0 -0 -0 -0 -0 -0 -0 -0 -0 -0 -0 -0 -0 -0 -0 -0 -0 -0 -0 -0 -0 -0 -0
-0 -0 -0 -0 -0 -0 -0 -0 -0 -0 -0 -0 -0 -0 -0 -0 -0 -0 -0 -0 -0 -0 -0 -0 -0 -0 -0 -0 -0 -0 -0 -0 -0 -0 -0 -0 -0 -0 -0 -0 -0 -0 -0
-0 -0 -0 -0 -0 -0 -0 -0 -0 -0 -0 -0 -0 -0 -0 -0 -0 -0 -0 -0 -0 -0 -0 -0 -0 -0 -0 -0 -0 -0 -0 -0 -0 -0 -0 -0 -0 -0 -0 -0 -0 -0 -0
-0 -0 -0 -0 -0 -0 -0 -0 -0 -0 -0 -0 -0 -0 -0 -0 -0 -0 -0 -0 -0 -0 -0 -0 -0 -0 -0 -0 -0 -0 -0 -0 -0 -0 -0 -0 -0 -0 -0 -0 -0 -0 -0
-0 -0 -0 -0 -0 -0 -0 -0 -0 -0 -0 -0 -0 -0 -0 -0 -0 -0 -0 -0 -0 -0 -0 -0 -0 -0 -0 -0 -0 -0 -0 -0 -0 -0 -0 -0 -0 -0 -0 -0 -0 -0 -0
-0 -0 -0 -0 -0 -0 -0 -0 -0 -0 -0 -0 -0 -0 -0 -0 -0 -0 -0 -0 -0 -0 -0 -0 -0 -0 -0 -0 -0 -0 -0 -0 -0 -0 -0 -0 -0 -0 -0 -0 -0 -0 -0
-0 -0 -0 -0 -0 -0 -0 -0 -0 -0 -0 -0 -0 -0 -0 -0 -0 -0 -0 -0 -0 -0 -0 -0 -0 -0 -0 -0 -0 -0 -0 -0 -0 -0 -0 -0 -0 -0 -0 -0 -0 -0 -0
-0 -0 -0 -0 -0 -0 -0 -0 -0 -0 -0 -0 -0 -0 -0 -0 -0 -0 -0 -0 -0 -0 -0 -0 -0 -0 -0 -0 -0 -0 -0 -0 -0 -0 -0 -0 -0 -0 -0 -0 -0 -0 -0
Wind_Speed
28 21 18 15 13 17 14 15 14 17 13 12 13 12 13 13 11 11 15 13 12 13 11 7 9 9 9 9 8 4 5 3 5 5 3 2 2 3 3 4 5 6 5
25 25 17 10 10 15 14 11 15 16 16 13 14 11 12 11 9 8 11 15 14 15 12 11 10 11 8 9 9 7 4 3 7 4 3 2 1 2 3 4 5 6 5
26 25 24 19 14 15 16 14 15 18 18 19 11 4 8 5 7 10 10 15 17 15 14 12 10 11 9 9 11 9 10 7 5 6 5 3 4 2 2 5 5 6 5
23 22 23 21 19 16 15 16 15 18 19 19 16 18 16 14 11 14 13 12 16 15 14 13 11 11 9 10 10 8 8 8 8 3 3 1 5 4 2 2 5 6 8
21 21 21 21 22 16 13 14 12 12 14 19 20 17 17 13 10 10 14 14 14 15 14 14 14 13 10 11 13 11 10 7 8 8 5 3 1 1 3 3 3 4 7
17 18 19 20 20 9 9 10 11 12 13 17 20 22 21 16 11 13 12 12 11 11 14 13 12 12 11 12 11 12 13 11 9 8 8 8 7 4 3 2 5 10 5
12 10 8 9 11 10 10 10 15 11 12 17 19 20 19 17 18 16 13 14 12 9 13 13 12 11 12 12 11 11 11 10 10 9 8 7 9 4 5 3 2 3 2
14 15 14 10 9 5 4 7 6 10 12 15 17 14 13 9 10 13 13 12 11 11 13 13 12 13 13 12 12 9 9 10 9 11 9 8 8 6 6 6 5 2 4
17 19 19 16 15 13 11 6 11 9 8 11 11 12 10 11 10 12 12 12 13 11 13 15 13 13 12 13 12 9 10 9 9 10 11 9 8 7 7 6 7 8 6
22 19 21 19 15 16 13 14 17 16 12 4 7 9 9 10 9 10 13 15 12 12 12 12 12 11 12 12 12 9 9 10 8 7 10 10 7 6 7 7 7 8 10
22 19 22 18 14 17 18 18 21 18 10 7 6 6 9 9 6 4 5 8 10 10 11 12 12 11 10 11 10 9 8 11 10 9 10 12 11 7 7 8 8 9 9
22 22 23 20 14 17 17 18 18 14 16 13 13 12 8 8 5 4 3 5 8 9 10 10 11 11 11 10 10 10 9 10 10 9 9 10 7 10 10 9 12 10 12
22 20 20 19 16 17 19 19 18 16 13 13 14 12 13 10 3 4 8 8 8 10 9 10 11 12 11 11 9 9 8 9 9 9 9 11 11 13 11 13 10 11 10
18 17 13 16 19 19 17 19 19 18 15 15 14 12 12 9 6 4 4 5 7 8 9 9 9 9 10 9 9 8 8 7 7 6 6 6 8 10 8 8 10 9 11
19 19 19 18 22 21 21 18 17 13 12 13 14 14 12 12 11 11 10 3 3 5 6 7 6 6 7 5 7 7 7 7 6 6 6 6 8 11 11 7 9 11 12
18 18 17 20 21 21 18 16 15 15 14 14 14 13 12 13 13 13 11 10 8 2 5 6 7 7 4 9 8 9 7 6 6 5 6 6 9 9 13 15 17 16 10
18 17 17 17 17 18 16 15 15 14 14 13 14 14 13 12 12 11 12 11 10 9 1 3 5 4 4 8 9 9 5 5 5 5 5 5 4 6 6 10 10 14 19
17 16 14 15 16 16 14 13 13 14 13 13 13 13 13 12 12 12 12 12 10 9 8 3 3 4 4 9 10 9 5 5 5 4 3 5 5 3 4 1 4 5 6
14 13 13 14 13 14 14 13 12 13 14 14 14 13 13 12 13 12 12 10 9 8 8 7 9 6 5 9 4 7 5 4 5 3 3 3 2 3 6 5 5 4 5
12 13 12 12 13 15 14 12 13 14 14 13 12 11 11 11 11 11 10 9 8 7 6 8 8 13 9 13 11 6 4 5 4 3 4 9 2 6 7 6 1 5 3
14 13 12 12 13 14 14 13 13 14 12 11 12 13 13 12 11 9 7 8 7 6 7 7 8 8 12 9 15 2 3 5 5 3 3 3 9 10 10 7 3 5 6
13 15 12 12 13 13 13 12 13 12 11 11 12 13 13 10 9 10 9 10 9 7 8 7 6 8 9 20 18 13 9 7 6 6 5 6 11 15 18 13 14 12 9
11 11 11 12 12 13 12 13 12 12 11 11 12 12 12 13 12 12 12 9 9 8 8 7 6 6 7 7 19 21 18 15 11 7 14 18 17 18 17 17 15 9 6
9 10 11 11 12 13 13 12 13 12 10 10 10 10 11 11 13 9 8 9 9 8 8 7 7 6 7 6 6 7 6 15 11 11 10 10 11 12 10 9 10 7 6
9 9 10 11 11 12 12 12 13 11 9 9 9 9 8 9 8 10 11 9 11 11 6 7 7 7 8 9 10 9 6 6 8 5 7 6 5 7 8 8 7 6 7
10 10 11 11 10 10 11 14 12 11 9 9 8 8 6 7 7 7 7 20 21 22 21 19 10 8 15 15 16 17 18 16 11 7 8 8 6 7 7 7 7 7 9
Wind_Direction
277 275 268 256 248 262 246 218 196 197 180 181 181 186 195 198 196 194 197 189 186 184 179 173 166 171 180 179 168 136 144 109 135 117 116 69 133 166 180 173 171 183 190
272 272 266 264 237 247 244 223 210 187 188 192 188 191 190 198 197 187 190 198 189 188 180 175 178 178 173 176 172 155 137 122 166 141 127 161 177 209 184 176 184 180 165
263 265 267 260 247 236 240 227 210 198 191 192 182 146 161 134 168 189 190 198 195 188 181 180 178 179 178 178 181 178 166 163 185 186 143 154 205 137 165 198 186 181 183
261 253 256 255 242 227 230 221 216 204 194 185 181 183 183 185 195 197 194 190 188 184 181 179 177 179 181 184 182 184 183 161 176 186 238 149 140 172 167 186 198 184 195
261 253 249 250 241 228 216 216 212 208 192 188 189 190 189 196 186 184 185 188 186 180 182 181 185 184 184 183 182 179 189 185 180 190 172 174 187 139 140 171 170 203 197
268 251 255 255 238 214 184 194 195 199 187 189 193 193 197 183 174 172 179 185 187 176 183 185 186 184 184 181 181 184 188 188 187 192 199 189 186 190 178 153 183 199 190
335 313 295 276 236 187 197 186 188 175 178 188 193 194 195 187 184 179 176 177 179 178 187 179 185 187 182 179 180 178 186 190 193 181 202 205 211 178 184 139 144 158 164
352 359 359 13 28 30 196 177 142 148 173 183 190 189 185 178 184 184 175 180 184 186 177 181 185 186 179 178 182 187 190 192 201 199 202 207 208 203 198 200 173 165 192
3 11 11 18 24 26 15 69 95 70 151 170 163 166 153 157 171 183 178 181 184 183 177 187 185 179 179 175 179 186 187 189 197 204 204 213 212 207 207 198 195 204 194
2 8 11 8 16 33 21 27 61 53 24 27 175 156 156 162 170 180 182 183 178 165 171 183 182 177 178 176 177 183 185 189 200 201 199 209 211 205 207 205 206 219 229
10 7 9 3 8 31 28 30 38 41 15 15 62 109 129 128 135 158 191 188 162 164 169 174 175 170 172 174 178 175 173 192 200 198 198 211 210 214 207 203 203 208 205
13 14 13 355 5 33 29 36 37 27 23 13 37 41 41 59 77 195 161 208 177 169 174 177 171 166 173 171 179 179 182 196 202 197 203 217 201 218 223 212 210 209 209
22 15 11 358 358 30 31 29 31 26 15 23 31 30 31 30 350 209 198 200 186 170 167 170 179 174 174 172 179 183 189 193 203 208 215 232 225 229 232 227 217 219 215
9 17 358 2 15 21 28 27 25 22 12 27 31 23 23 13 1 337 216 185 168 163 169 177 189 175 161 172 171 178 182 189 199 203 210 218 228 232 229 227 228 222 215
12 8 4 5 15 14 19 21 29 17 16 30 27 21 13 11 8 12 8 342 150 149 159 148 155 141 148 155 163 171 184 192 199 211 217 229 235 237 240 253 261 238 225
6 7 6 9 14 13 11 5 10 16 18 28 26 16 15 15 11 7 10 15 27 117 145 165 152 168 163 162 194 169 179 190 188 213 227 229 237 247 248 246 244 246 238
5 7 5 6 3 12 5 5 3 10 20 21 20 12 12 17 12 7 14 14 17 1 334 169 147 154 175 169 193 187 175 186 191 208 233 253 248 263 274 264 263 258 251
4 7 0 5 4 357 3 2 9 11 17 18 16 10 6 12 10 11 15 8 7 6 3 325 185 167 183 178 205 199 189 189 195 200 223 238 266 295 262 188 55 22 4
2 3 1 4 0 357 358 4 10 15 16 12 10 6 1 7 8 9 4 5 360 7 9 13 15 13 82 24 265 185 182 167 126 76 20 275 233 165 142 125 119 76 37
360 360 358 1 2 0 356 7 13 15 12 5 4 7 6 10 9 0 358 356 3 16 28 34 25 32 9 13 347 231 157 154 133 81 56 38 98 139 126 115 134 103 42
357 360 3 10 6 357 356 5 12 14 4 4 7 12 11 9 6 358 359 359 7 28 40 43 34 30 20 3 2 286 182 156 132 105 74 39 79 82 78 81 92 101 99
359 5 10 4 6 357 359 7 12 1 4 10 16 15 14 12 8 9 7 13 13 28 40 40 33 32 16 21 25 36 77 107 114 106 86 69 85 89 90 84 88 80 86
359 6 12 1 1 358 1 5 359 358 8 14 19 18 16 18 15 17 16 20 19 22 29 39 36 22 10 18 30 42 61 68 87 84 92 92 82 81 75 76 78 74 79
357 9 15 7 358 354 358 4 358 355 8 21 22 22 22 22 29 29 28 31 24 26 27 29 33 24 25 20 12 29 34 70 69 74 70 68 76 68 68 58 54 59 75
2 16 15 4 355 356 358 1 3 355 4 22 25 24 26 22 21 37 34 39 42 42 37 38 41 42 40 41 56 61 61 57 58 71 72 50 56 59 66 66 63 70 78
7 14 12 4 353 354 356 6 359 1 7 25 24 23 21 17 23 25 32 37 45 48 55 57 53 48 61 60 65 71 71 71 71 61 64 61 40 62 68 68 75 70 82